Powrót do katalogu

EROS C3

AktywnyNaukaVLEO
NORAD 54880·PAYLOAD·🇮🇱 Israel

Wystrzelony Dec 30, 2022 z Vandenberg Space Force Base

Loading…

Następne Przeloty (najbliższe 24 godziny)

TLE

ŚwieżeSource: Space-Track

Epoka: Sep 14, 2026, 15:20 UTC

1 54880U 22179A   26257.63943918  .00003164  00000-0  16970-3 0  9991
2 54880 139.3337 156.0184 0009015 242.8596 117.1292 15.11403746205868

Śledź EROS C3 w czasie rzeczywistym z AllMySat

Download on the App Store